Regional Weather Roundup
Issued by NWS Kansas City/Pleasant Hill, MO

Home | Current Version | Previous Version | Graphics & Text | Print | Product List | Glossary Off
Versions: 1 2 3 4 5 6 7 8 9 10 11 12 13 14 15 16 17 18 19 20 21 22 23 24 25 26 27 28 29 30 31 32 33 34 35 36 37 38 39 40 41 42 43 44 45 46 47 48 49 50

000
ASUS43 KEAX 300304
RWREAX

WEATHER ROUNDUP FOR EASTERN KANSAS AND NORTHWEST MISSOURI
NATIONAL WEATHER SERVICE KANSAS CITY/PLEASANT HILL MO
1000 PM CDT MON JUN 29 2015

KSZ040-057-103>105-MOZ028-029-037-043-300400-
...KANSAS CITY METROPOLITAN AREA...

CITY           SKY/WX    TMP DP  RH WIND       PRES   REMARKS
K.C. INTL      MOCLDY    79  63  57 CALM      29.92R
K.C. DOWNTOWN  LGT RAIN  79  68  69 CALM      29.90R
LEES SUMMIT    CLEAR     75  63  66 CALM      29.92R
OLATHE - IXD   CLEAR     76  64  66 CALM      29.93R
OLATHE - OJC   CLEAR     74  65  73 CALM      29.92R
LAWRENCE       CLEAR     71  67  87 CALM      29.92R

$$

MOZ001>008-011>017-020>025-030>033-038>040-044>046-053-054-300400-
...NORTHERN AND CENTRAL MISSOURI...

CITY           SKY/WX    TMP DP  RH WIND       PRES   REMARKS
ST. JOSEPH     CLEAR     75  69  81 N3        29.91R
MOSBY            N/A     72  68  88 CALM      29.90S
HARRISONVILLE  CLEAR     73  68  83 CALM      29.95R
WHITEMAN AFB   CLEAR     76  67  73 W5        29.91R
CLINTON        PTCLDY    75  70  83 CALM      29.92R
SEDALIA        CLEAR     75  65  70 W5        29.92R
WARSAW         FAIR      73  66  78 CALM      29.92S
CHILLICOTHE      N/A     72  69  90 CALM      29.90R
KIRKSVILLE     CLEAR     69  65  86 W3        29.89R

$$

MOZ041-047>049-056>058-063>065-088>090-097-300400-
...EASTERN AND SOUTHERN MISSOURI...

CITY           SKY/WX    TMP DP  RH WIND       PRES   REMARKS
ST. LOUIS INTL MOCLDY    76  66  71 SW3       29.87R
SPIRIT OF STL  MOCLDY    72  71  97 CALM      29.86R
COLUMBIA       CLEAR     75  67  76 W5        29.89R
JEFFERSON CITY PTCLDY    75  68  78 CALM      29.88R
MEXICO         CLEAR     75  75 100 W6        29.88R
ROLLA          CLEAR     69  66  90 W6        29.90R
OSAGE BEACH    CLEAR     72  66  83 W3        29.91R
SPRINGFIELD    CLEAR     71  66  84 SW5       29.95R
BRANSON        PTCLDY    72  64  78 CALM      29.97R
NEVADA         CLEAR     73  68  83 SW3       29.94R
JOPLIN         CLEAR     72  66  81 S3        29.95R
WEST PLAINS    CLEAR     72  64  76 NW5       29.95R
MALDEN         CLEAR     81  68  65 CALM      29.88R

$$

IAZ060-094-KSZ022-034>040-054-083-096-NEZ052-066-093-300400-
...KANSAS...SOUTHEAST NEBRASKA AND IOWA...

CITY           SKY/WX    TMP DP  RH WIND       PRES   REMARKS
TOPEKA         CLEAR     76  67  73 CALM      29.92R
MANHATTAN      CLEAR     71  63  75 CALM      29.94R
EMPORIA        CLEAR     73  62  68 S6        29.94R
CHANUTE        CLEAR     71  65  81 S3        29.94R
WICHITA        PTCLDY    79  59  50 SE5       29.95R
OMAHA          CLOUDY    73  64  73 E3        29.91R
LINCOLN        CLEAR     74  64  71 N3        29.94R
FALLS CITY     CLEAR     77  63  61 CALM      29.91R
LAMONI         CLEAR     72  66  81 W6        29.90R
DES MOINES     CLOUDY    73  65  75 W3        29.86S

$$




USA.gov is the U.S. government's official web portal to all federal, state and local government web resources and services.